Location: Caltech
(34.1382°N, 118.1253°W)
Time: 03:30:53
(UTC-07:00)

Sapphire - Visible Passes

Search period start: 24 April 2018 00:00
Search period end: 04 May 2018 00:00
Orbit: 786 x 795 km, 67.1° (Epoch: 23 April)

Date Brightness Start Highest point End Pass type
(mag) Time Alt. Az. Time Alt. Az. Time Alt. Az.
24 Apr ? 21:32:07 10° NNW 21:37:22 47° ENE 21:37:37 47° ENE visible
24 Apr ? 23:16:36 10° WNW 23:18:22 16° WNW 23:18:22 16° WNW visible
25 Apr ? 21:01:40 10° N 21:06:35 34° ENE 21:08:03 29° E visible
25 Apr ? 22:45:17 10° NW 22:48:48 26° W 22:48:48 26° W visible
26 Apr ? 20:31:20 10° N 20:35:46 25° NE 20:38:31 17° E visible
26 Apr ? 22:14:14 10° NW 22:19:14 39° WSW 22:19:17 39° WSW visible
27 Apr ? 20:01:09 10° N 20:04:53 18° NE 20:08:35 10° E visible
27 Apr ? 21:43:19 10° NW 21:48:38 56° WSW 21:49:49 46° SSW visible
28 Apr ? 21:12:33 10° NNW 21:17:59 81° WSW 21:20:26 34° SSE visible
29 Apr ? 20:41:52 10° NNW 20:47:18 72° ENE 20:51:05 20° SE visible
29 Apr ? 22:28:09 10° W 22:30:00 12° WSW 22:31:52 10° WSW visible
30 Apr ? 20:11:17 10° NNW 20:16:35 51° ENE 20:21:50 10° SE visible
30 Apr ? 21:56:01 10° WNW 21:59:30 18° WSW 22:02:36 11° SW visible
01 May ? 21:24:36 10° NW 21:28:59 25° WSW 21:33:21 10° SSW visible
02 May ? 20:53:30 10° NW 20:58:25 36° WSW 21:03:18 10° S visible
03 May ? 20:22:34 10° NW 20:27:49 52° WSW 20:33:03 10° S visible
